Location: Brienzwiler
(46.7508°N, 8.1014°E)
Time: 08:06:38
(UTC+00:00)

Cosmos 1844 Rocket - Pass Details

Date: 05 July 2020
Orbit: 826 x 843 km, 71.0° (Epoch: 05 August)

Event Time Altitude Azimuth Distance (km) Brightness Sun altitude
Rises 21:05:57 0° 327° (NNW) 3,376 7.9 -13.1°
Reaches altitude 10° 21:08:29 10° 321° (NW) 2,437 6.6 -13.3°
Maximum altitude 21:13:42 42° 252° (WSW) 1,163 3.5 -13.8°
Enters shadow 21:18:14 13° 186° (S) 2,190 4.4 -14.3°
